This is the latest recevied weather packets stored in our database for station/object KD8OZS. If no packets are shown the sender has not sent any weather packets the latest 10 day(s).
| Time | Temp. | Humidity | Pressure | Rain* | Wind** | Luminosity | Snow |
|---|---|---|---|---|---|---|---|
| 1787618912 | 16.11° C | 91% | 1010.6 hPa | 0 mm | - | 0 W/m² | - |
| 1787618608 | 16.11° C | 90% | 1010.5 hPa | 0 mm | - | 0 W/m² | - |
| 1787618305 | 16.11° C | 90% | 1010.4 hPa | 0 mm | - | 0 W/m² | - |
| 1787618001 | 16.67° C | 90% | 1010.3 hPa | 0 mm | - | 0 W/m² | - |
| 1787617695 | 16.67° C | 89% | 1010.2 hPa | 0 mm | - | 0 W/m² | - |
| 1787617389 | 16.67° C | 89% | 1010.4 hPa | 0 mm | - | 0 W/m² | - |
| 1787617089 | 16.67° C | 89% | 1010.2 hPa | 0 mm | - | 0 W/m² | - |
| 1787616784 | 17.22° C | 90% | 1010.1 hPa | 0 mm | - | 1 W/m² | - |
| 1787616483 | 17.22° C | 88% | 1010.3 hPa | 0 mm | - | 3 W/m² | - |
| 1787616176 | 17.78° C | 88% | 1010.1 hPa | 0 mm | - | 6 W/m² | - |
| 1787615875 | 17.78° C | 88% | 1010.2 hPa | 0 mm | - | 8 W/m² | - |
| 1787615570 | 17.78° C | 87% | 1010.2 hPa | 0 mm | - | 12 W/m² | - |
| 1787615265 | 18.33° C | 88% | 1010.4 hPa | 0 mm | - | 16 W/m² | - |
| 1787614956 | 18.33° C | 87% | 1010.2 hPa | 0 mm | - | 18 W/m² | - |
| 1787614652 | 18.89° C | 87% | 1010.1 hPa | 0 mm | - | 19 W/m² | - |
| 1787614349 | 18.89° C | 87% | 1010.2 hPa | 0 mm | - | 20 W/m² | - |
| 1787614046 | 19.44° C | 84% | 1010.1 hPa | 0 mm | - | 23 W/m² | - |
| 1787613742 | 20° C | 81% | 1010 hPa | 0 mm | - | 26 W/m² | - |
| 1787613441 | 20° C | 79% | 1010.2 hPa | 0 mm | - | 29 W/m² | - |
| 1787613137 | 20° C | 80% | 1010.2 hPa | 0 mm | - | 30 W/m² | - |
| 1787612834 | 20° C | 77% | 1010 hPa | 0 mm | - | 39 W/m² | - |
| 1787612530 | 20.56° C | 77% | 1010.4 hPa | 0 mm | - | 34 W/m² | - |
| 1787612226 | 21.11° C | 77% | 1010.4 hPa | 0 mm | - | 37 W/m² | - |
| 1787611922 | 21.67° C | 75% | 1010.1 hPa | 0 mm | - | 39 W/m² | - |
| 1787611617 | 21.11° C | 74% | 1010.2 hPa | 0 mm | - | 45 W/m² | - |
* Rain latest hour (hover to see other rain measurements)
** Current wind speed in m/s (hover to see current wind gust speed)